Location: Coupvray
(48.8929°N, 2.7967°E)
Time: 13:43:36
(UTC+00:00)

Altair 2 - Pass Details

Date: 17 January 2021
Orbit: 837 x 949 km, 90.2° (Epoch: 28 February)

Event Time Altitude Azimuth Distance (km) Brightness Sun altitude
Rises 17:38:08 0° 152° (SSE) 3,407 10.7 -12.1°
Reaches altitude 10° 17:40:40 10° 145° (SE) 2,465 9.9 -12.5°
Maximum altitude 17:45:43 39° 78° (ENE) 1,249 8.1 -13.2°
Drops below altitude 10° 17:50:46 10° 12° (NNE) 2,463 9.9 -14.0°
Sets 17:53:17 0° 5° (N) 3,405 10.7 -14.4°
